Time,TemperatureF,DewpointF,PressureIn,WindDirection,WindDirectionDegrees,WindSpeedMPH,WindSpeedGustMPH,Humidity,HourlyPrecipIn,Conditions,Clouds,dailyrainin,SolarRadiationWatts/m^2,SoftwareType,DateUTC
2013-01-11 00:02:00,37.0,34.0,-100.00,WNW,302,7.0,10.0,87,0.00,,,0.24,0.000000,,2013-01-11 08:02:00,
2013-01-11 00:11:00,37.0,33.0,-100.00,NW,309,8.0,13.0,85,0.00,,,0.22,0.000000,,2013-01-11 08:11:00,
2013-01-11 00:42:00,37.0,33.0,-100.00,NW,309,8.0,13.0,85,0.00,,,0.22,0.000000,,2013-01-11 08:42:00,
2013-01-11 00:52:00,37.0,33.0,-100.00,NW,309,8.0,13.0,85,0.00,,,0.22,0.000000,,2013-01-11 08:52:00,
2013-01-11 01:02:00,37.0,33.0,-100.00,NW,309,8.0,13.0,85,0.00,,,0.22,0.000000,,2013-01-11 09:02:00,
2013-01-11 01:11:00,37.0,33.0,-100.00,NNW,332,8.0,12.0,85,0.00,,,0.21,0.000000,,2013-01-11 09:11:00,
2013-01-11 01:32:00,37.0,33.0,-100.00,NNW,332,8.0,12.0,85,0.00,,,0.21,0.000000,,2013-01-11 09:32:00,
2013-01-11 01:42:00,37.0,33.0,-100.00,NNW,332,8.0,12.0,85,0.00,,,0.21,0.000000,,2013-01-11 09:42:00,
2013-01-11 01:52:00,37.0,33.0,-100.00,NNW,332,8.0,12.0,85,0.00,,,0.21,0.000000,,2013-01-11 09:52:00,
2013-01-11 02:02:00,37.0,33.0,-100.00,NNW,332,8.0,12.0,85,0.00,,,0.21,0.000000,,2013-01-11 10:02:00,
2013-01-11 02:11:00,37.0,32.0,-100.00,NW,306,9.0,13.0,83,0.00,,,0.19,0.000000,,2013-01-11 10:11:00,
2013-01-11 02:42:00,37.0,32.0,-100.00,NW,306,9.0,13.0,83,0.00,,,0.19,0.000000,,2013-01-11 10:42:00,
2013-01-11 02:52:00,37.0,32.0,-100.00,NW,306,9.0,13.0,83,0.00,,,0.19,0.000000,,2013-01-11 10:52:00,
2013-01-11 03:02:00,37.0,32.0,-100.00,NW,306,9.0,13.0,83,0.00,,,0.19,0.000000,,2013-01-11 11:02:00,
2013-01-11 03:11:00,37.0,32.0,-100.00,NW,309,7.0,14.0,83,0.00,,,0.17,0.000000,,2013-01-11 11:11:00,
2013-01-11 03:33:00,37.0,32.0,-100.00,NW,309,7.0,14.0,83,0.00,,,0.17,0.000000,,2013-01-11 11:33:00,
2013-01-11 03:43:00,37.0,32.0,-100.00,NW,309,7.0,14.0,83,0.00,,,0.17,0.000000,,2013-01-11 11:43:00,
2013-01-11 03:53:00,37.0,32.0,-100.00,NW,309,7.0,14.0,83,0.00,,,0.17,0.000000,,2013-01-11 11:53:00,
2013-01-11 04:02:00,37.0,32.0,-100.00,NW,309,7.0,14.0,83,0.00,,,0.17,0.000000,,2013-01-11 12:02:00,
2013-01-11 04:11:00,37.0,32.0,-100.00,WNW,294,7.0,12.0,83,0.00,,,-99.99,0.000000,,2013-01-11 12:11:00,
2013-01-11 04:33:00,37.0,32.0,-100.00,WNW,294,7.0,12.0,83,0.00,,,-99.99,0.000000,,2013-01-11 12:33:00,
2013-01-11 04:43:00,37.0,32.0,-100.00,WNW,294,7.0,12.0,83,0.00,,,-99.99,0.000000,,2013-01-11 12:43:00,
2013-01-11 04:53:00,37.0,32.0,-100.00,WNW,294,7.0,12.0,83,0.00,,,-99.99,0.000000,,2013-01-11 12:53:00,
2013-01-11 05:02:00,37.0,32.0,-100.00,WNW,294,7.0,12.0,83,0.00,,,-99.99,0.000000,,2013-01-11 13:02:00,
2013-01-11 05:11:00,37.0,33.0,-100.00,NW,310,5.0,11.0,86,0.00,,,-99.99,0.000000,,2013-01-11 13:11:00,
2013-01-11 05:43:00,37.0,33.0,-100.00,NW,310,5.0,11.0,86,0.00,,,-99.99,0.000000,,2013-01-11 13:43:00,
2013-01-11 05:53:00,37.0,33.0,-100.00,NW,310,5.0,11.0,86,0.00,,,-99.99,0.000000,,2013-01-11 13:53:00,
2013-01-11 06:03:00,37.0,33.0,-100.00,NW,310,5.0,11.0,86,0.00,,,-99.99,0.000000,,2013-01-11 14:03:00,
2013-01-11 06:11:00,37.0,32.0,-100.00,WNW,299,8.0,14.0,82,0.00,,,0.12,0.000000,,2013-01-11 14:11:00,
2013-01-11 06:33:00,37.0,32.0,-100.00,WNW,299,8.0,14.0,82,0.00,,,0.12,0.000000,,2013-01-11 14:33:00,
2013-01-11 06:43:00,37.0,32.0,-100.00,WNW,299,8.0,14.0,82,0.00,,,0.12,0.000000,,2013-01-11 14:43:00,
2013-01-11 06:53:00,37.0,32.0,-100.00,WNW,299,8.0,14.0,82,0.00,,,0.12,0.000000,,2013-01-11 14:53:00,
2013-01-11 07:03:00,37.0,32.0,-100.00,WNW,299,8.0,14.0,82,0.00,,,0.12,0.000000,,2013-01-11 15:03:00,
2013-01-11 07:11:00,35.0,31.0,-100.00,NW,308,6.0,11.0,84,0.00,,,0.10,0.000000,,2013-01-11 15:11:00,
2013-01-11 07:43:00,35.0,31.0,-100.00,NW,308,6.0,11.0,84,0.00,,,0.10,0.000000,,2013-01-11 15:43:00,
2013-01-11 07:53:00,35.0,31.0,-100.00,NW,308,6.0,11.0,84,0.00,,,0.10,0.000000,,2013-01-11 15:53:00,
2013-01-11 08:02:00,35.0,31.0,-100.00,NW,308,6.0,11.0,84,0.00,,,0.10,0.000000,,2013-01-11 16:02:00,
2013-01-11 08:11:00,35.0,30.0,-100.00,NW,305,5.0,9.0,81,0.00,,,0.09,33.000000,,2013-01-11 16:11:00,
2013-01-11 08:43:00,35.0,30.0,-100.00,NW,305,5.0,9.0,81,0.00,,,0.09,33.000000,,2013-01-11 16:43:00,
2013-01-11 08:53:00,35.0,30.0,-100.00,NW,305,5.0,9.0,81,0.00,,,0.09,33.000000,,2013-01-11 16:53:00,
2013-01-11 09:03:00,35.0,30.0,-100.00,NW,305,5.0,9.0,81,0.00,,,0.09,33.000000,,2013-01-11 17:03:00,
2013-01-11 09:11:00,38.0,30.0,-100.00,WNW,298,9.0,13.0,72,0.00,,,0.08,191.000000,,2013-01-11 17:11:00,
2013-01-11 09:43:00,38.0,30.0,-100.00,WNW,298,9.0,13.0,72,0.00,,,0.08,191.000000,,2013-01-11 17:43:00,
2013-01-11 09:53:00,38.0,30.0,-100.00,WNW,298,9.0,13.0,72,0.00,,,0.08,191.000000,,2013-01-11 17:53:00,
2013-01-11 10:03:00,38.0,30.0,-100.00,WNW,298,9.0,13.0,72,0.00,,,0.08,191.000000,,2013-01-11 18:03:00,
2013-01-11 10:11:00,40.0,28.0,-100.00,WNW,292,10.0,16.0,62,0.00,,,0.07,348.000000,,2013-01-11 18:11:00,
2013-01-11 10:43:00,40.0,28.0,-100.00,WNW,292,10.0,16.0,62,0.00,,,0.07,348.000000,,2013-01-11 18:43:00,
2013-01-11 10:53:00,40.0,28.0,-100.00,WNW,292,10.0,16.0,62,0.00,,,0.07,348.000000,,2013-01-11 18:53:00,
2013-01-11 11:02:00,40.0,28.0,-100.00,WNW,292,10.0,16.0,62,0.00,,,0.07,348.000000,,2013-01-11 19:02:00,
2013-01-11 11:11:00,42.0,27.0,-100.00,WNW,288,12.0,18.0,56,0.00,,,0.06,481.000000,,2013-01-11 19:11:00,
2013-01-11 11:43:00,42.0,27.0,-100.00,WNW,288,12.0,18.0,56,0.00,,,0.06,481.000000,,2013-01-11 19:43:00,
2013-01-11 11:53:00,42.0,27.0,-100.00,WNW,288,12.0,18.0,56,0.00,,,0.06,481.000000,,2013-01-11 19:53:00,
2013-01-11 12:02:00,42.0,27.0,-100.00,WNW,288,12.0,18.0,56,0.00,,,0.06,481.000000,,2013-01-11 20:02:00,
2013-01-11 12:11:00,43.0,27.0,-100.00,NW,305,11.0,20.0,53,0.00,,,0.05,539.000000,,2013-01-11 20:11:00,
2013-01-11 12:33:00,43.0,27.0,-100.00,NW,305,11.0,20.0,53,0.00,,,0.05,539.000000,,2013-01-11 20:33:00,
2013-01-11 12:43:00,43.0,27.0,-100.00,NW,305,11.0,20.0,53,0.00,,,0.05,539.000000,,2013-01-11 20:43:00,
2013-01-11 12:53:00,43.0,27.0,-100.00,NW,305,11.0,20.0,53,0.00,,,0.05,539.000000,,2013-01-11 20:53:00,
2013-01-11 13:03:00,43.0,27.0,-100.00,NW,305,11.0,20.0,53,0.00,,,0.05,539.000000,,2013-01-11 21:03:00,
2013-01-11 13:11:00,42.0,30.0,-100.00,WNW,297,13.0,20.0,61,0.00,,,0.04,461.000000,,2013-01-11 21:11:00,
2013-01-11 13:33:00,42.0,30.0,-100.00,WNW,297,13.0,20.0,61,0.00,,,0.04,461.000000,,2013-01-11 21:33:00,
2013-01-11 13:43:00,42.0,30.0,-100.00,WNW,297,13.0,20.0,61,0.00,,,0.04,461.000000,,2013-01-11 21:43:00,
2013-01-11 13:53:00,42.0,30.0,-100.00,WNW,297,13.0,20.0,61,0.00,,,0.04,461.000000,,2013-01-11 21:53:00,
2013-01-11 14:02:00,42.0,30.0,-100.00,WNW,297,13.0,20.0,61,0.00,,,0.04,461.000000,,2013-01-11 22:02:00,
2013-01-11 14:11:00,43.0,31.0,-100.00,WNW,296,12.0,18.0,63,0.00,,,0.03,263.000000,,2013-01-11 22:11:00,
2013-01-11 14:33:00,43.0,31.0,-100.00,WNW,296,12.0,18.0,63,0.00,,,0.03,263.000000,,2013-01-11 22:33:00,
2013-01-11 14:42:00,43.0,31.0,-100.00,WNW,296,12.0,18.0,63,0.00,,,0.03,263.000000,,2013-01-11 22:42:00,
2013-01-11 14:53:00,43.0,31.0,-100.00,WNW,296,12.0,18.0,63,0.00,,,0.03,263.000000,,2013-01-11 22:53:00,
2013-01-11 15:02:00,43.0,31.0,-100.00,WNW,296,12.0,18.0,63,0.00,,,0.03,263.000000,,2013-01-11 23:02:00,
2013-01-11 15:11:00,42.0,33.0,-100.00,WNW,299,10.0,21.0,71,0.00,,,0.03,128.000000,,2013-01-11 23:11:00,
2013-01-11 15:33:00,42.0,33.0,-100.00,WNW,299,10.0,21.0,71,0.00,,,0.03,128.000000,,2013-01-11 23:33:00,
2013-01-11 15:43:00,42.0,33.0,-100.00,WNW,299,10.0,21.0,71,0.00,,,0.03,128.000000,,2013-01-11 23:43:00,
2013-01-11 15:53:00,42.0,33.0,-100.00,WNW,299,10.0,21.0,71,0.00,,,0.03,128.000000,,2013-01-11 23:53:00,
2013-01-11 16:02:00,42.0,33.0,-100.00,WNW,299,10.0,21.0,71,0.00,,,0.03,128.000000,,2013-01-12 00:02:00,
2013-01-11 16:11:00,42.0,34.0,-100.00,NW,304,12.0,20.0,72,0.00,,,0.02,89.000000,,2013-01-12 00:11:00,
2013-01-11 16:33:00,42.0,34.0,-100.00,NW,304,12.0,20.0,72,0.00,,,0.02,89.000000,,2013-01-12 00:33:00,
2013-01-11 16:43:00,42.0,34.0,-100.00,NW,304,12.0,20.0,72,0.00,,,0.02,89.000000,,2013-01-12 00:43:00,
2013-01-11 16:53:00,42.0,34.0,-100.00,NW,304,12.0,20.0,72,0.00,,,0.02,89.000000,,2013-01-12 00:53:00,
2013-01-11 17:02:00,42.0,34.0,-100.00,NW,304,12.0,20.0,72,0.00,,,0.02,89.000000,,2013-01-12 01:02:00,
2013-01-11 17:11:00,41.0,36.0,-100.00,NW,304,8.0,19.0,81,0.00,,,0.01,14.000000,,2013-01-12 01:11:00,
2013-01-11 17:33:00,41.0,36.0,-100.00,NW,304,8.0,19.0,81,0.00,,,0.01,14.000000,,2013-01-12 01:33:00,
2013-01-11 17:43:00,41.0,36.0,-100.00,NW,304,8.0,19.0,81,0.00,,,0.01,14.000000,,2013-01-12 01:43:00,
2013-01-11 17:52:00,41.0,36.0,-100.00,NW,304,8.0,19.0,81,0.00,,,0.01,14.000000,,2013-01-12 01:52:00,
2013-01-11 18:02:00,41.0,36.0,-100.00,NW,304,8.0,19.0,81,0.00,,,0.01,14.000000,,2013-01-12 02:02:00,
2013-01-11 18:11:00,40.0,35.0,-100.00,WNW,300,8.0,14.0,83,0.00,,,0.01,0.000000,,2013-01-12 02:11:00,
2013-01-11 18:33:00,40.0,35.0,-100.00,WNW,300,8.0,14.0,83,0.00,,,0.01,0.000000,,2013-01-12 02:33:00,
2013-01-11 18:43:00,40.0,35.0,-100.00,WNW,300,8.0,14.0,83,0.00,,,0.01,0.000000,,2013-01-12 02:43:00,
2013-01-11 18:53:00,40.0,35.0,-100.00,WNW,300,8.0,14.0,83,0.00,,,0.01,0.000000,,2013-01-12 02:53:00,
2013-01-11 19:02:00,40.0,35.0,-100.00,WNW,300,8.0,14.0,83,0.00,,,0.01,0.000000,,2013-01-12 03:02:00,
2013-01-11 19:11:00,39.0,37.0,-100.00,WNW,299,11.0,18.0,91,0.00,,,0.01,0.000000,,2013-01-12 03:11:00,
2013-01-11 19:33:00,39.0,37.0,-100.00,WNW,299,11.0,18.0,91,0.00,,,0.01,0.000000,,2013-01-12 03:33:00,
2013-01-11 19:43:00,39.0,37.0,-100.00,WNW,299,11.0,18.0,91,0.00,,,0.01,0.000000,,2013-01-12 03:43:00,
2013-01-11 19:53:00,39.0,37.0,-100.00,WNW,299,11.0,18.0,91,0.00,,,0.01,0.000000,,2013-01-12 03:53:00,
2013-01-11 20:02:00,39.0,37.0,-100.00,WNW,299,11.0,18.0,91,0.00,,,0.01,0.000000,,2013-01-12 04:02:00,
2013-01-11 20:11:00,39.0,37.0,-100.00,NW,312,10.0,18.0,91,0.01,,,0.01,0.000000,,2013-01-12 04:11:00,
2013-01-11 20:33:00,39.0,37.0,-100.00,NW,312,10.0,18.0,91,0.01,,,0.01,0.000000,,2013-01-12 04:33:00,
2013-01-11 20:42:00,39.0,37.0,-100.00,NW,312,10.0,18.0,91,0.01,,,0.01,0.000000,,2013-01-12 04:42:00,
2013-01-11 20:52:00,39.0,37.0,-100.00,NW,312,10.0,18.0,91,0.01,,,0.01,0.000000,,2013-01-12 04:52:00,
2013-01-11 21:03:00,39.0,37.0,-100.00,NW,312,10.0,18.0,91,0.01,,,0.01,0.000000,,2013-01-12 05:03:00,
2013-01-11 21:11:00,38.0,36.0,-100.00,WNW,302,8.0,15.0,94,0.01,,,0.02,0.000000,,2013-01-12 05:11:00,
2013-01-11 21:32:00,38.0,36.0,-100.00,WNW,302,8.0,15.0,94,0.01,,,0.02,0.000000,,2013-01-12 05:32:00,
2013-01-11 21:42:00,38.0,36.0,-100.00,WNW,302,8.0,15.0,94,0.01,,,0.02,0.000000,,2013-01-12 05:42:00,
2013-01-11 21:52:00,38.0,36.0,-100.00,WNW,302,8.0,15.0,94,0.01,,,0.02,0.000000,,2013-01-12 05:52:00,
2013-01-11 22:02:00,38.0,36.0,-100.00,WNW,302,8.0,15.0,94,0.01,,,0.02,0.000000,,2013-01-12 06:02:00,
2013-01-11 22:11:00,39.0,36.0,-100.00,NW,319,5.0,10.0,90,0.01,,,0.03,0.000000,,2013-01-12 06:11:00,
2013-01-11 22:33:00,39.0,36.0,-100.00,NW,319,5.0,10.0,90,0.01,,,0.03,0.000000,,2013-01-12 06:33:00,
2013-01-11 22:43:00,39.0,36.0,-100.00,NW,319,5.0,10.0,90,0.01,,,0.03,0.000000,,2013-01-12 06:43:00,
2013-01-11 22:52:00,39.0,36.0,-100.00,NW,319,5.0,10.0,90,0.01,,,0.03,0.000000,,2013-01-12 06:52:00,
2013-01-11 23:02:00,39.0,36.0,-100.00,NW,319,5.0,10.0,90,0.01,,,0.03,0.000000,,2013-01-12 07:02:00,
2013-01-11 23:11:00,38.0,36.0,-100.00,NNE,15,1.0,7.0,94,0.01,,,-99.99,0.000000,,2013-01-12 07:11:00,
2013-01-11 23:32:00,38.0,36.0,-100.00,NNE,15,1.0,7.0,94,0.01,,,-99.99,0.000000,,2013-01-12 07:32:00,
2013-01-11 23:42:00,38.0,36.0,-100.00,NNE,15,1.0,7.0,94,0.01,,,-99.99,0.000000,,2013-01-12 07:42:00,
2013-01-11 23:52:00,38.0,36.0,-100.00,NNE,15,1.0,7.0,94,0.01,,,-99.99,0.000000,,2013-01-12 07:52:00,